Flag for U.S.A. Weather past 2 weeks in Overland Park, Kansas, U.S.A.

Now
76 °F

Sunny.


Feels Like: 78 °F
Forecast: 57 / 72 °F
Wind: 16 mph from North

Location: Johnson County Executive Airport

Current Time: Sep 21, 2014 at 6:05:02 PM

Latest Report: Sep 21, 2014 at 4:53 PM


Visibility: 10 mi

Pressure: 30.12 "Hg

Humidity: 35%

Dew point: 46 °F

Location of Overland ParkLocation

Historic Weather in Overland Park — Graph

°F

Overland Park temperature yesterday

Maximum temperature yesterday: 83 °F (at 1:53 PM)
Minimum temperature yesterday: 66 °F (at 3:53 AM)
Average temperature yesterday: 73 °F

Past Weeks' High & Low Weather Summary

 TemperatureHumidityPressure
High89 °F (Sep 9, 3:53 PM)100% (Sep 11, 6:53 AM)30.42 "Hg (Sep 11, 6:53 AM)
Low40 °F (Sep 13, 5:53 AM)34% (Sep 21, 12:53 PM)29.52 "Hg (Sep 10, 12:53 AM)
Average64 °F80%30.05 "Hg
* Reported Sep 6 4:53 PM — Sep 21 4:53 PM, Overland Park, Weather by CustomWeather, © 2014

Note: Actual official high and low records may vary slightly from our data, if they occured in-between our weather recording intervals... More about our weather records

Advertising

Overland Park weather history for previous 24 hours

 ConditionsComfort  
Time TempWeatherWind HumidityBarometerVisibility
4:53 PM
Sep 21
76 °FSunny.16 mph35%30.12 "Hg10 mi
3:53 PM76 °FSunny.14 mph36%30.12 "Hg10 mi
2:53 PM76 °FSunny.13 mph36%30.12 "Hg10 mi
1:53 PM76 °FSunny.16 mph36%30.13 "Hg10 mi
12:53 PM75 °FSunny.13 mph34%30.14 "Hg10 mi
11:53 AM74 °FSunny.13 mph43%30.15 "Hg10 mi
10:53 AM72 °FSunny.13 mph44%30.15 "Hg10 mi
9:53 AM70 °FSunny.8 mph51%30.14 "Hg10 mi
8:53 AM65 °FSunny.6 mph68%30.13 "Hg10 mi
7:53 AM60 °FClear.5 mph75%30.11 "Hg10 mi
6:53 AM56 °FClear.No wind81%30.09 "Hg10 mi
5:53 AM59 °FClear.No wind75%30.07 "Hg10 mi
4:53 AM64 °FClear.8 mph61%30.05 "Hg10 mi
3:53 AM66 °FClear.6 mph73%30.04 "Hg10 mi
2:53 AM69 °FClear.14 mph84%30.01 "Hg10 mi
1:53 AM69 °FClear.6 mph93%29.98 "Hg10 mi
12:53 AM70 °FClear.5 mph90%29.97 "Hg10 mi
11:53 PM
Sep 20
71 °FClear.5 mph90%29.96 "Hg9 mi
10:53 PM72 °FPassing clouds.No wind91%29.96 "Hg10 mi
9:53 PM74 °FClear.3 mph85%29.95 "Hg8 mi
8:53 PM76 °FPassing clouds.No wind82%29.93 "Hg9 mi
7:53 PM75 °FSunny.5 mph85%29.91 "Hg10 mi
6:53 PM77 °FSunny.5 mph79%29.90 "Hg9 mi
Weather by CustomWeather, © 2014

See weather overviewHow to use our weather pages